Powrót do katalogu

CZ-4C DEB

AktywnyPO
NORAD 39231·DEBRIS·🇨🇳 China

Wystrzelony Jul 19, 2013 z Taiyuan Satellite Launch Center

Loading…

Następne Przeloty (najbliższe 24 godziny)

TLE

ŚwieżeSource: Space-Track

Epoka: Sep 13, 2026, 05:36 UTC

1 39231U 13037H   26256.23376416  .00000897  00000-0  34488-3 0  9999
2 39231  98.0645 260.8678 0235252 326.6229  32.0302 14.18623160673006

Śledź CZ-4C DEB w czasie rzeczywistym z AllMySat

Download on the App Store